EW8311 Weather Reports


time (UTC)temp
C
wind
direction
speed
KPH
gust
KPH
rain 1hr
cm
rain 24hr
cm
rain mn
cm
humidity
%
barometer
mb
20260509073003 21 349 0.0 0.0 0.00 0.00 0.00 27 1005.4
20260509071616 21 349 0.0 0.0 0.00 0.00 0.00 30 1005.4
20260509070105 21 349 0.0 1.6 0.00 0.00 0.00 26 1005.2
20260509064555 21 349 0.0 0.0 0.00 0.00 0.00 27 1005.2
20260509063054 21 335 0.0 0.0 0.00 0.00 0.00 33 1005.2
20260509061600 22 335 0.0 0.0 0.00 0.00 0.00 33 1005.1
20260509060057 22 335 0.0 1.6 0.00 0.00 0.00 28 1005.1
20260509054613 22 335 0.0 3.2 0.00 0.00 0.00 28 1004.9
20260509053142 23 335 0.0 0.0 0.00 0.00 0.00 24 1004.9
20260509051554 23 335 0.0 1.6 0.00 0.00 0.00 33 1004.8
20260509050052 22 335 0.0 0.0 0.00 0.00 0.00 24 1004.8
20260509044551 23 335 0.0 0.0 0.00 0.00 0.00 26 1004.8
20260509043050 24 335 0.0 0.0 0.00 0.00 0.00 24 1004.6
20260509041548 24 335 0.0 1.6 0.00 0.00 0.00 24 1004.4
20260509040107 24 335 0.0 1.6 0.00 0.00 0.00 24 1004.2
20260509034607 25 335 0.0 0.0 0.00 0.00 0.00 24 1004.2
20260509033047 27 335 0.0 1.6 0.00 0.00 0.00 20 1004.0
20260509031546 27 335 1.6 6.4 0.00 0.00 0.00 17 1003.8
20260509030046 28 314 3.2 8.0 0.00 0.00 0.00 16 1003.7
20260509024546 28 324 3.2 6.4 0.00 0.00 0.00 15 1003.5
20260509023048 29 327 1.6 6.4 0.00 0.00 0.00 15 1003.4
20260509021544 28 326 1.6 6.4 0.00 0.00 0.00 15 1003.2
20260509020047 30 301 3.2 8.0 0.00 0.00 0.00 14 1003.1
20260509014544 31 320 4.8 12.9 0.00 0.00 0.00 12 1003.0
20260509013057 31 306 4.8 16.1 0.00 0.00 0.00 12 1002.7
20260509011544 32 327 9.7 14.5 0.00 0.00 0.00 11 1002.7
20260509010044 32 318 8.0 14.5 0.00 0.00 0.00 11 1002.8
20260509004542 32 286 8.0 19.3 0.00 0.00 0.00 12 1002.8
20260509003059 32 313 4.8 20.9 0.00 0.00 0.00 12 1002.8
20260509001538 33 290 3.2 12.9 0.00 0.00 0.00 12 1002.8
20260509000038 33 313 8.0 17.7 0.00 0.00 0.00 11 1002.8
20260508234540 33 339 9.7 24.1 0.00 0.00 0.00 11 1002.7
20260508233033 33 322 8.0 20.9 0.00 0.00 0.00 11 1002.9
20260508231536 33 312 8.0 20.9 0.00 0.00 0.00 12 1003.0
20260508230033 33 327 6.4 22.5 0.00 0.00 0.00 12 1002.9
20260508224530 33 353 11.3 19.3 0.00 0.00 0.00 12 1003.1
20260508223026 33 286 8.0 22.5 0.00 0.00 0.00 12 1003.3
20260508221523 33 307 3.2 20.9 0.00 0.00 0.00 14 1003.4
20260508220023 33 289 8.0 22.5 0.00 0.00 0.00 13 1003.6
20260508214519 32 292 11.3 25.7 0.00 0.00 0.00 12 1003.9
20260508213015 32 317 6.4 19.3 0.00 0.00 0.00 14 1004.0
20260508211513 32 323 11.3 20.9 0.00 0.00 0.00 14 1004.3
20260508210016 32 334 12.9 25.7 0.00 0.00 0.00 14 1004.5
20260508204510 32 243 11.3 22.5 0.00 0.00 0.00 14 1004.6
20260508203006 32 324 8.0 17.7 0.00 0.00 0.00 15 1004.8
20260508201505 32 331 6.4 16.1 0.00 0.00 0.00 16 1005.3
20260508200001 32 334 3.2 11.3 0.00 0.00 0.00 15 1005.5
20260508194601 32 142 1.6 11.3 0.00 0.00 0.00 16 1005.7
20260508193106 31 326 0.0 1.6 0.00 0.00 0.00 17 1006.0
20260508191552 30 108 3.2 6.4 0.00 0.00 0.00 17 1006.3
20260508190049 29 319 1.6 4.8 0.00 0.00 0.00 19 1006.6
20260508184558 29 86 3.2 8.0 0.00 0.00 0.00 18 1006.9
20260508183053 28 257 0.0 8.0 0.00 0.00 0.00 19 1007.0
20260508181543 28 258 1.6 8.0 0.00 0.00 0.00 21 1007.3
20260508180037 27 334 0.0 4.8 0.00 0.00 0.00 22 1007.6
20260508174556 27 320 0.0 4.8 0.00 0.00 0.00 21 1007.9
20260508173035 26 266 1.6 8.0 0.00 0.00 0.00 23 1008.0
20260508171534 26 342 0.0 8.0 0.00 0.00 0.00 23 1008.0
20260508170034 25 326 1.6 6.4 0.00 0.00 0.00 23 1008.2
20260508164528 25 127 1.6 4.8 0.00 0.00 0.00 23 1008.3
20260508163039 24 110 1.6 4.8 0.00 0.00 0.00 24 1008.4
20260508161524 24 264 1.6 4.8 0.00 0.00 0.00 26 1008.5
20260508160025 24 255 1.6 4.8 0.00 0.00 0.00 24 1008.5
20260508154520 23 113 0.0 6.4 0.00 0.00 0.00 25 1008.4
20260508153025 23 97 0.0 4.8 0.00 0.00 0.00 26 1008.4
20260508151523 22 227 1.6 3.2 0.00 0.00 0.00 27 1008.5
20260508150014 22 253 0.0 4.8 0.00 0.00 0.00 27 1008.6
20260508144512 23 108 0.0 4.8 0.00 0.00 0.00 27 1008.6
20260508143008 21 329 0.0 0.0 0.00 0.00 0.00 30 1008.5
20260508141505 20 328 0.0 1.6 0.00 0.00 0.00 33 1008.6
20260508140002 19 328 0.0 0.0 0.00 0.00 0.00 36 1008.6
20260508134607 18 328 0.0 0.0 0.00 0.00 0.00 39 1008.6
20260508133105 15 328 0.0 0.0 0.00 0.00 0.00 46 1008.3
20260508131559 14 328 0.0 0.0 0.00 0.00 0.00 53 1008.2
20260508130106 15 328 0.0 0.0 0.00 0.00 0.00 54 1008.1
20260508124551 15 328 0.0 0.0 0.00 0.00 0.00 44 1007.7
20260508123049 15 328 0.0 0.0 0.00 0.00 0.00 49 1007.5
20260508121550 15 328 0.0 0.0 0.00 0.00 0.00 45 1007.4
20260508120047 15 328 0.0 0.0 0.00 0.00 0.00 46 1007.3
20260508114544 16 328 0.0 0.0 0.00 0.00 0.00 43 1007.2
20260508113051 16 328 0.0 0.0 0.00 0.00 0.00 41 1007.1
20260508111542 17 328 0.0 0.0 0.00 0.00 0.00 39 1007.0
20260508110054 18 328 0.0 4.8 0.00 0.00 0.00 36 1006.9
20260508104540 17 342 1.6 3.2 0.00 0.00 0.00 38 1007.0
20260508103040 17 349 1.6 3.2 0.00 0.00 0.00 39 1006.9
20260508101549 16 337 1.6 3.2 0.00 0.00 0.00 42 1007.0
20260508100039 16 122 0.0 1.6 0.00 0.00 0.00 44 1006.9
20260508094549 16 122 0.0 0.0 0.00 0.00 0.00 44 1006.9
20260508093049 16 122 0.0 0.0 0.00 0.00 0.00 43 1006.9
20260508091532 17 122 0.0 0.0 0.00 0.00 0.00 42 1007.0
20260508090037 17 122 0.0 0.0 0.00 0.00 0.00 36 1007.0
20260508084526 18 122 0.0 1.6 0.00 0.00 0.00 32 1007.1
20260508083027 18 130 0.0 0.0 0.00 0.00 0.00 33 1007.3
20260508081523 18 130 0.0 1.6 0.00 0.00 0.00 33 1007.4
20260508080033 18 132 0.0 0.0 0.00 0.00 0.00 35 1007.5
20260508074523 18 132 0.0 1.6 0.00 0.00 0.00 32 1007.5